Regional Weather Roundup
Issued by NWS Upton, NY

Current Version | Previous Version | Text Only | Print | Product List | Glossary On
Versions: 1 2 3 4 5 6 7 8 9 10 11 12 13 14 15 16 17 18 19 20 21 22 23 24 25 26 27 28 29 30 31 32 33 34 35 36 37 38 39 40 41 42 43 44 45 46 47 48 49 50
000
ASUS41 KOKX 200908
RWROKX

REGIONAL WEATHER ROUNDUP
NATIONAL WEATHER SERVICE NEW YORK NY
400 AM EST MON NOV 20 2017

NOTE: "FAIR" INDICATES FEW OR NO CLOUDS BELOW 12,000 FEET WITH NO
SIGNIFICANT WEATHER AND/OR OBSTRUCTIONS TO VISIBILITY.

NYZ071-072-176-178-NJZ106-104-201000-
NEW YORK CITY METRO AREA

CITY           SKY/WX    TMP DP  RH WIND       PRES   REMARKS
Central Park   PTCLDY    38  25  59 MISG      29.92R
Bronx Bot Gard   N/A     37  23  56 W14       29.90R WCI  29
LaGuardia APRT MOCLDY    40  25  55 W15G24    29.90R WCI  32
Kennedy INTL   MOCLDY    39  25  57 W14       29.92R WCI  31
Breezy Point     N/A     37 N/A N/A W17G26      N/A  WCI  28
Newark/Liberty PTCLDY    37  25  61 W15       29.92R WCI  28
Teterboro      PTCLDY    38  24  57 W8        29.90R WCI  32
$$

NYZ177-179-078>081-201000-
LONG ISLAND NEW YORK

CITY           SKY/WX    TMP DP  RH WIND       PRES   REMARKS
Jones Beach      N/A     39 N/A N/A NW18        N/A  WCI  30
Matinecock PT    N/A     41 N/A N/A NW18G24     N/A
Farmingdale    CLOUDY    39  23  52 NW12G23   29.89R WCI  32
MacArthur/ISP  CLOUDY    39  21  48 NW13G24   29.87R WCI  31
Shirley        MOCLDY    39  21  48 NW14G23   29.87R WCI  31
Mt Sinai Harb    N/A    N/A N/A N/A W13G21      N/A
Westhampton    CLEAR     38  18  44 W20G29    29.87R WCI  28
East Hampton   FAIR      38  22  52 NW6       29.84R WCI  34
Southold       NOT AVBL
Montauk        NOT AVBL
$$

NYZ052-065-067-201000-
HUDSON VALLEY

CITY           SKY/WX    TMP DP  RH WIND       PRES   REMARKS
White Plains   PTCLDY    35  20  54 W13       29.82S WCI  26
Larchmont Harb   N/A     37 N/A N/A W15G22      N/A  WCI  28
Croton On Huds   N/A     37 N/A N/A NW9         N/A  WCI  31
Newburgh       MOCLDY    34  21  60 NW8G17    29.87R WCI  27
Montgomery     CLOUDY    35  20  54 W10G17    29.86R WCI  27
Poughkeepsie   PTCLDY    34  18  52 W9        29.86R WCI  27
Albany         PTCLDY    31  20  63 W14G20    29.84R WCI  21
$$

NJZ001-105-106-008-010-013-015-019>022-104-201000-
NEW JERSEY

CITY           SKY/WX    TMP DP  RH WIND       PRES   REMARKS
Newark/Liberty PTCLDY    37  25  61 W15       29.92R WCI  28
Teterboro      PTCLDY    38  24  57 W8        29.90R WCI  32
Caldwell       PTCLDY    36  25  64 VRB5      29.92R WCI  32
Somerville     CLEAR     36  26  67 W5        29.92R WCI  32
Linden         FAIR      36  26  67 NW12G17   29.93R WCI  28
Perth Amboy      N/A     37 N/A N/A W12         N/A  WCI  30
Sussex         MOCLDY    34  23  64 SW6       29.88R WCI  29
Andover        NOT AVBL
Trenton        CLEAR     37  24  59 W9        29.94R WCI  30
Millville      MOCLDY    40  26  57 W12       30.00R WCI  33
Atlantic City  CLEAR     39  26  59 W12       29.98R WCI  32
Wrightstown    CLEAR     37  23  56 NW13G22   29.93R WCI  29
Toms River     PTCLDY    36  25  64 W7        29.96R WCI  30
Belmar         CLOUDY    37  24  59 W14       29.94R WCI  28
$$

PAZ047>061-062-071-201000-
EASTERN PENNSYLVANIA

CITY           SKY/WX    TMP DP  RH WIND       PRES   REMARKS
Philadelphia   MOCLDY    40  23  50 W22G30    29.99R WCI  30
Allentown      CLEAR     34  22  61 W10       29.94R WCI  26
Scranton       CLOUDY    32  29  88 W7        29.89S WCI  26
$$

CTZ002-004>006-009-010-012-RIZ004-006-007-MAZ004-011-015-201000-
SOUTHERN NEW ENGLAND
 IN CT

CITY           SKY/WX    TMP DP  RH WIND       PRES   REMARKS
Bradley INTL   PTCLDY    35  18  49 W15G28    29.81R WCI  25
Hartford       PTCLDY    36  26  67 W7        29.82R WCI  30
Danbury        CLEAR     36  17  46 W14G21    29.85R WCI  27
Wtrbury/Oxford CLEAR     32  21  64 W8        29.82R WCI  25
Norwalk Harbor   N/A     37 N/A N/A W18         N/A  WCI  27
Bridgeport     CLEAR     37  20  50 W9        29.86R WCI  30
Meriden        PTCLDY    35  19  52 W6        29.84R WCI  30
New Haven      CLEAR     39  22  50 VRB6      29.85R WCI  35
Chester        FAIR      36  19  51 NW9G23    29.82R WCI  29
Groton         PTCLDY    36  27  69 NW9       29.82R WCI  29
Wilimantic     PTCLDY    36  26  67 W6        29.80R WCI  31

 IN RI

CITY           SKY/WX    TMP DP  RH WIND       PRES   REMARKS
Providence     CLOUDY    38  25  59 W15G23    29.78R WCI  29
Block Island   CLOUDY    40  27  59 W16G29    29.80R WCI  31
Westerly       LGT SNOW  35  30  82 CALM      29.82R
 IN MA

CITY           SKY/WX    TMP DP  RH WIND       PRES   REMARKS
Boston         PTCLDY    37  23  56 W14G24    29.73R WCI  28
Worcester      PTCLDY    31  20  63 W17G23    29.71R WCI  19
Westfield      CLOUDY    35  20  54 NW16G28   29.79R WCI  25
Provincetown   CLEAR     39  23  52 W23G37    29.73R WCI  28
Nantucket      CLOUDY    41  27  57 NW13G25   29.75R
$$

ANZ330-335-338-340-345-350-353-355-201000-
COASTAL MARINE OBSERVATIONS


STATION/POSITION TIME  SKY/WX   TEMP    WIND        PRES    VSBY  WAVE
                                AIR SEA DIR/SP/G                  HT/PER
                 (UTC)          (F)     (DEG/KT/KT) (MB)    (MI)  (FT/S)
NY HARB ENTRANCE 0850            43 57  290/ 25/ 31 1011.7          4/ 5
20 S FIRE ISLAND 0850            43 57  300/ 25/ 31 1011.6          8/ 6
GREAT SOUTH BAY  0830            41 47  290/ 17/ 21   N/A
HUDSON CANYON    0850            47 59  290/ 29/ 37 1011.0         10/ 7
KINGS POINT      0836            40 51  330/ 14/ 16 1012.9
EXECUTION ROCKS  0845            41     270/ 19/ 25   N/A
WESTERN LI SOUND 0749            42     300/ 19/ 31   N/A           2/ 3
CENTRAL LI SOUND 0815            43     280/ 25/ 33   N/A           5
ROBBINS REEF     0836            39     280/ 16/ 21 1013.2
$$


>>>>>>>>>>>>>>>>>>>>>>>>>>>> KEY <<<<<<<<<<<<<<<<<<<<<<<<<<<
>                                                          <
>     SKY/WX - Sky Condition/Present Weather               <
>     TMP    - Temperature in Fahrenheit                   <
>     DP     - Dew Point in Fahrenheit                     <
>     RH     - Relative Humidity in Percent                <
>     WIND   - Direction (from) and Speed in MPH           <
>     PRES   - Mean Sea Level Pressure (inches of Hg)      <
>     WCI    - Wind Chill Index                            <
>     VSB    - VISIBILITY IN MILES                         <
>     HX     - HEAT INDEX                                  <
>     TC     - TEMPERATURE IN CELSIUS                      <
>     VRB    - VARIABLE WIND DIRECTION                     <
>                                                          <
>>>>>>>>>>>>>>>>>>>>>>>>>>>> KEY <<<<<<<<<<<<<<<<<<<<<<<<<<<



USA.gov is the U.S. government's official web portal to all federal, state and local government web resources and services.